Weather History for St. Francis, KS

Change the Weather History Date:

Thursday, February 13, 2014

  Actual Average Record
Temperature  
Mean Temperature 38 °F -  
Max Temperature 45 °F 49 °F 54 °F (2013)
Min Temperature 31 °F 19 °F 18 °F (2013)
Degree Days  
Heating Degree Days 27    
Moisture  
Dew Point 28 °F    
Average Humidity 69    
Maximum Humidity 81    
Minimum Humidity 54    
Precipitation  
Precipitation 0.00 in - - ()
Sea Level Pressure  
Sea Level Pressure 29.80 in    
Wind  
Wind Speed 11 mph (SW)    
Max Wind Speed 23 mph    
Max Gust Speed 28 mph    
Visibility 10 miles    
Events      
Averages and records for this station are not official NWS values.
T = Trace of Precipitation, MM = Missing Value Source: NWS Daily Summary

Daily Weather History Graph

Daily Weather History Graph

Search for Another Location

Airport:

Trip Planner

Search our weather history database for the weather conditions in past years. The results will help you decide how hot, cold, wet, or windy it might be!

Date:

Astronomy

Feb. 13, 2014 Rise Set
Actual Time 7:42 AM CST 6:21 PM CST
Civil Twilight 7:14 AM CST 6:48 PM CST
Nautical Twilight 6:42 AM CST 7:20 PM CST
Astronomical Twilight 6:11 AM CST 7:52 PM CST
Moon 5:31 PM CST (2/13) 6:36 AM CST (2/13)
Length of Visible Light 11h 34m
Length of Day
10h 39m
Waxing Gibbous, 99% of the Moon is Illuminated
Feb 13
Waxing Gibbous
Feb 14
Full
Feb 22
Last Quarter
Mar 1
New
Mar 8
First Quarter

Hourly Weather History & Observations

Time (CST) Temp. Windchill Dew Point Humidity Pressure Visibility Wind Dir Wind Speed Gust Speed Precip Events Conditions
12:15 AM 34.0 °F 24.2 °F 24.3 °F 68% 29.76 in 10.0 mi SW 15.0 mph - N/A   Scattered Clouds
12:35 AM 33.1 °F 23.0 °F 24.4 °F 71% 29.78 in 10.0 mi WSW 15.0 mph - N/A   Clear
12:55 AM 33.3 °F 23.7 °F 24.1 °F 69% 29.77 in 10.0 mi SW 13.8 mph - N/A   Clear
1:15 AM 32.9 °F 24.7 °F 23.9 °F 69% 29.78 in 10.0 mi WSW 10.4 mph - N/A   Clear
1:35 AM 32.9 °F 24.7 °F 23.9 °F 69% 29.79 in 10.0 mi WSW 10.4 mph - N/A   Clear
1:55 AM 32.4 °F 23.5 °F 23.9 °F 71% 29.79 in 10.0 mi WSW 11.5 mph - N/A   Clear
2:15 AM 32.0 °F 23.0 °F 23.7 °F 71% 29.79 in 10.0 mi SW 11.5 mph - N/A   Clear
2:35 AM 31.1 °F 22.4 °F 23.4 °F 73% 29.79 in 10.0 mi SW 10.4 mph - N/A   Clear
2:55 AM 31.1 °F 21.9 °F 23.4 °F 73% 29.80 in 10.0 mi SW 11.5 mph - N/A   Clear
3:15 AM 31.1 °F 21.9 °F 23.0 °F 72% 29.81 in 10.0 mi SW 11.5 mph - N/A   Clear
3:35 AM 31.6 °F 23.1 °F 23.2 °F 71% 29.81 in 10.0 mi SSW 10.4 mph - N/A   Clear
3:55 AM 31.1 °F 23.1 °F 23.4 °F 73% 29.81 in 10.0 mi SSW 9.2 mph - N/A   Clear
4:15 AM 31.3 °F 22.7 °F 23.2 °F 72% 29.82 in 10.0 mi SSW 10.4 mph - N/A   Clear
4:35 AM 32.0 °F 23.6 °F 23.7 °F 71% 29.82 in 10.0 mi SW 10.4 mph - N/A   Clear
4:55 AM 32.0 °F 24.8 °F 24.1 °F 73% 29.82 in 10.0 mi WSW 8.1 mph - N/A   Clear
5:15 AM 36.1 °F 28.2 °F 26.6 °F 68% 29.83 in 10.0 mi West 11.5 mph - N/A   Clear
5:35 AM 37.9 °F 30.0 °F 27.3 °F 66% 29.83 in 10.0 mi NW 12.7 mph - N/A   Clear
5:55 AM 39.7 °F 31.5 °F 28.0 °F 63% 29.83 in 10.0 mi NW 15.0 mph - N/A   Clear
6:15 AM 40.8 °F 32.9 °F 28.4 °F 61% 29.83 in 10.0 mi NW 15.0 mph 24.2 mph N/A   Clear
6:35 AM 40.1 °F 32.7 °F 28.4 °F 63% 29.84 in 10.0 mi NW 12.7 mph - N/A   Clear
6:55 AM 38.8 °F 32.6 °F 28.2 °F 66% 29.85 in 10.0 mi NW 9.2 mph - N/A   Clear
7:15 AM 37.2 °F 31.2 °F 27.9 °F 69% 29.86 in 10.0 mi West 8.1 mph - N/A   Clear
7:35 AM 36.1 °F 30.6 °F 27.1 °F 70% 29.87 in 10.0 mi West 6.9 mph - N/A   Clear
7:55 AM 34.2 °F 28.2 °F 26.4 °F 73% 29.87 in 10.0 mi SW 6.9 mph - N/A   Clear
8:15 AM 36.5 °F 31.8 °F 26.6 °F 67% 29.88 in 10.0 mi West 5.8 mph - N/A   Clear
8:35 AM 37.4 °F 30.8 °F 26.8 °F 66% 29.88 in 10.0 mi West 9.2 mph - N/A   Clear
8:55 AM 36.9 °F 30.1 °F 26.6 °F 66% 29.89 in 10.0 mi WSW 9.2 mph - N/A   Clear
9:15 AM 35.4 °F 32.6 °F 26.1 °F 69% 29.90 in 10.0 mi South 3.5 mph - N/A   Clear
9:35 AM 35.6 °F 29.2 °F 26.2 °F 69% 29.90 in 10.0 mi SW 8.1 mph - N/A   Clear
9:55 AM 34.9 °F 27.7 °F 25.7 °F 69% 29.90 in 10.0 mi WSW 9.2 mph - N/A   Clear
10:15 AM 35.1 °F 27.9 °F 25.7 °F 69% 29.90 in 10.0 mi WSW 9.2 mph - N/A   Clear
10:35 AM 36.0 °F 29.6 °F 26.1 °F 67% 29.90 in 10.0 mi SW 8.1 mph - N/A   Clear
10:55 AM 37.2 °F 31.9 °F 27.0 °F 66% 29.88 in 10.0 mi SW 6.9 mph - N/A   Clear
11:15 AM 37.4 °F 29.8 °F 27.0 °F 66% 29.89 in 10.0 mi WSW 11.5 mph - N/A   Clear
11:35 AM 37.9 °F 31.5 °F 27.0 °F 65% 29.88 in 10.0 mi WSW 9.2 mph - N/A   Clear
11:55 AM 38.5 °F 31.1 °F 27.5 °F 65% 29.88 in 10.0 mi WSW 11.5 mph - N/A   Clear
12:15 PM 39.4 °F 32.7 °F 28.2 °F 64% 29.88 in 10.0 mi WSW 10.4 mph - N/A   Clear
12:35 PM 40.1 °F 34.1 °F 28.8 °F 64% 29.87 in 10.0 mi WSW 9.2 mph - N/A   Clear
12:55 PM 41.4 °F 36.8 °F 28.9 °F 61% 29.86 in 10.0 mi SW 6.9 mph - N/A   Clear
1:35 PM 43.3 °F 40.7 °F 29.7 °F 59% 29.82 in 10.0 mi SW 4.6 mph - N/A   Clear
1:55 PM 44.1 °F 40.1 °F 29.3 °F 56% 29.81 in 10.0 mi SSW 6.9 mph - N/A   Clear
2:15 PM 43.3 °F 38.6 °F 30.4 °F 60% 29.79 in 10.0 mi SSW 8.1 mph - N/A   Clear
2:35 PM 43.5 °F 38.3 °F 29.5 °F 58% 29.78 in 10.0 mi South 9.2 mph - N/A   Clear
2:55 PM 45.1 °F 39.9 °F 29.5 °F 54% 29.78 in 10.0 mi South 10.4 mph - N/A   Scattered Clouds
3:15 PM 43.7 °F 37.7 °F 29.8 °F 58% 29.77 in 10.0 mi South 11.5 mph - N/A   Mostly Cloudy
3:35 PM 43.7 °F 37.7 °F 30.2 °F 59% 29.76 in 10.0 mi South 11.5 mph - N/A   Scattered Clouds
3:55 PM 43.9 °F 38.8 °F 30.6 °F 59% 29.76 in 10.0 mi SSW 9.2 mph - N/A   Clear
4:15 PM 43.0 °F 36.4 °F 30.9 °F 62% 29.75 in 10.0 mi SSW 12.7 mph - N/A   Clear
4:35 PM 43.0 °F 37.2 °F 31.1 °F 63% 29.75 in 10.0 mi SSW 10.4 mph - N/A   Clear
4:55 PM 42.8 °F 38.0 °F 32.0 °F 66% 29.74 in 10.0 mi SSW 8.1 mph - N/A   Clear
5:15 PM 42.1 °F 36.6 °F 32.0 °F 67% 29.74 in 10.0 mi SW 9.2 mph - N/A   Clear
5:35 PM 40.1 °F 34.1 °F 32.0 °F 73% 29.73 in 10.0 mi SW 9.2 mph - N/A   Clear
5:55 PM 38.5 °F 31.6 °F 32.0 °F 78% 29.73 in 10.0 mi SSW 10.4 mph - N/A   Clear
6:15 PM 38.8 °F 32.6 °F 32.0 °F 76% 29.73 in 10.0 mi SW 9.2 mph - N/A   Clear
6:35 PM 39.2 °F 32.5 °F 32.0 °F 75% 29.73 in 10.0 mi WSW 10.4 mph - N/A   Clear
6:55 PM 39.6 °F 33.5 °F 32.0 °F 74% 29.73 in 10.0 mi SSW 9.2 mph - N/A   Clear
7:15 PM 38.8 °F 31.6 °F 32.0 °F 76% 29.73 in 10.0 mi SSW 11.5 mph - N/A   Clear
7:35 PM 38.8 °F 31.6 °F 31.8 °F 76% 29.73 in 10.0 mi SSW 11.5 mph - N/A   Clear
7:55 PM 38.7 °F 32.4 °F 32.0 °F 77% 29.74 in 10.0 mi SW 9.2 mph - N/A   Scattered Clouds
8:15 PM 39.2 °F 33.6 °F 31.8 °F 75% 29.73 in 10.0 mi SW 8.1 mph - N/A   Mostly Cloudy
8:35 PM 38.5 °F 33.4 °F 31.5 °F 76% 29.74 in 10.0 mi WSW 6.9 mph - N/A   Scattered Clouds
8:55 PM 37.8 °F 32.5 °F 31.3 °F 77% 29.73 in 10.0 mi WSW 6.9 mph - N/A   Scattered Clouds
9:15 PM 37.9 °F 32.7 °F 31.5 °F 77% 29.73 in 10.0 mi SW 6.9 mph - N/A   Mostly Cloudy
9:35 PM 38.3 °F 31.9 °F 31.3 °F 76% 29.73 in 10.0 mi WSW 9.2 mph - N/A   Scattered Clouds
9:55 PM 37.4 °F 30.8 °F 31.5 °F 79% 29.76 in 10.0 mi WSW 9.2 mph - N/A   Mostly Cloudy
10:15 PM 36.7 °F 30.5 °F 31.5 °F 81% 29.74 in 10.0 mi SW 8.1 mph - N/A   Scattered Clouds
10:35 PM 36.7 °F 29.4 °F 31.3 °F 81% 29.74 in 10.0 mi WSW 10.4 mph - N/A   Clear
10:55 PM 37.0 °F 31.0 °F 30.7 °F 78% 29.75 in 10.0 mi WSW 8.1 mph - N/A   Clear
11:15 PM 37.0 °F 28.5 °F 31.1 °F 79% 29.75 in 10.0 mi WSW 13.8 mph - N/A   Clear
11:35 PM 37.0 °F 30.4 °F 30.2 °F 76% 29.75 in 10.0 mi WSW 9.2 mph - N/A   Clear
11:55 PM 41.5 °F 31.9 °F 28.6 °F 60% 29.77 in 10.0 mi NW 23.0 mph 27.6 mph N/A   Clear